Location: Observatoire de Paris
(48.8363°N, 2.3365°E)
Time: 22:28:45
(UTC+01:00)

BUGSAT 1 - Pass Details

Date: 29 September 2021
Orbit: 557 x 602 km, 98.1° (Epoch: 16 October)

Event Time Altitude Azimuth Distance (km) Brightness Sun altitude
Rises 05:43:26 0° 15° (NNE) 2,795 ? -11.3°
Reaches altitude 10° 05:45:37 10° 17° (NNE) 1,885 ? -11.0°
Maximum altitude 05:49:41 76° 103° (ESE) 590 ? -10.3°
Drops below altitude 10° 05:53:41 10° 190° (S) 1,848 ? -9.6°
Sets 05:55:48 0° 192° (SSW) 2,735 ? -9.3°
